Погода Камень-на-Оби

Погода Камень-на-Оби : погода сейчас, прогноз погоды и архив. Всё, что Вы хотите узнать о погоде Камень-на-Оби!

Хотите узнать прогноз погоды Камень-на-Оби? Тогда Вам сюда: Погода Камень-на-Оби

Поиск расширенной информации на нашем сайте:

Другие новости

Новости СМИ2

Главная страница сайта

Новости сайта

03.07.2017

Напоминаем, что на нашем специализированном сайте Метеоцентр.Азия вы можете получить высокодетализированные автоматические прогнозы погоды по пунктам России, СНГ и мира в авиационном формате (включающие направление и скорость ветра, видимость, явления погоды, количество и форму облачности, нижнюю и верхнюю границу облачности).


Погода Камень-на-Оби - сегодня

Время (UTC), дата Ветер
(°,м/с) 
Видим.   Явления Облачность Т
(°С)
Тd
(°С)
f(%) Тe
(°С)
Pmin
(гПа)
dP
(гПа)
Po
(мм)
O2
(г/м3)
Тmin Tmax R s Состояние
почвы
06 18.06.18 080 (В) 20000 м    8/3 600 м средняя, верхняя 
[Cu Sc|Ac trans|Ci]
+27.9 +14.3 43 +36  999  -1.3  738  267           
12 18.06.18 360 (С) 3{10}  10 км  гроза без осадков  10/8 600 м средняя 
[Sc|Ac trans]
+24.2 +13.4 51 +31  999  -0.7  738  271    +29.4       
21 18.06.18 250 (З) 10 км    3/3 600 м 
[Sc]
+13.4 +12.1 92 +18  999.7  0.2  738  281           
00 19.06.18 350 (С) 0500 м  туман  ясно 
+14.3 +13.2 93 +22  999.1  -0.5  738  280  +12.3      влажная 
03 19.06.18 350 (С) 1000 м  дымка{туман}  10/8 600 м кучево-дожд., средняя, верхняя 
[Cb cap|Ac trans|Ci fib]
+17.6 +16.5 93 +31  998.4  -0.5  738  276           
06 19.06.18 160 (Ю) 10 км  гроза без осадков{туман}  10/10 600 м кучево-дожд. 
[Cb cap]
+20.9 +14.5 67 +29  994.7  -3.5  735  272           
12 19.06.18 230 (ЮЗ) 5-10{19}  10 км  {гроза, ливн. осадки}  10/6 600 м кучево-дожд., средняя 
[Cb cap|Ac As]
+18.4 +14.2 77 +27  995.3  3.1  735  275    +25.9     
15 19.06.18 250 (З) 5{15}  10 км    3/3 600 м 
[Sc]
+16 +12.2 78 +21  1001.4  5.8  740  279           
18 19.06.18 230 (ЮЗ) 10 км    1/1 600 м 
[Sc]
+14.6 +11.8 83 +18  1003.2  1.7  741  281           
21 19.06.18 220 (ЮЗ) 10 км    1/0 
[Sc]
+13.6 +11.2 85 +17  1003.5  0.3  741  282           
00 20.06.18 210 (ЮЗ) 10 км    8/8 600 м 
[Sc]
+14.9 +11.9 82 +19  1004.4  0.9  742  281  +13        влажная 
03 20.06.18 180 (Ю) 10 км    6/3 600 м средняя 
[Cu med, cong|Ac trans]
+18.6 +13.6 73 +27  1004.2  742  277           
06 20.06.18 230 (ЮЗ) 4{10}  20000 м    4/4 600 м 
[Cu med, cong]
+22.8 +11.8 50 +27  1003.8  -0.2  742  274           
09 20.06.18 240 (ЮЗ) 3{10}  20000 м    8/4 600 м верхняя 
[Cu med, cong|Cs]
+23.2 +8.7 40 +23  1003  -0.8  741  274           
12 20.06.18 230 (ЮЗ) 5{14}  20000 м    8/5 600 м средняя, верхняя 
[Cu med, cong|Ac cuf|Ci fib]
+22.6 +9.2 42 +23  1003  741  274    +24.6       
15 20.06.18 230 (ЮЗ) 20000 м  {гроза, ливн. осадки}  3/3 600 м 
[Sc diur, vesp]
+17.5 +11.2 67 +21  1004.2  742  279           
18 20.06.18 220 (ЮЗ) 20000 м  {гроза, ливн. осадки}  3/3 600 м 
[Sc diur, vesp]
+14.7 +10.7 77 +17  1004.6  0.2  742  282           
21 20.06.18 250 (З) 20000 м    9/0 средняя 
[Ac trans]
+15.9 +10.1 68 +17  1005.2  0.6  742  281           
00 21.06.18 240 (ЮЗ) 4000 м  дымка{ливн. осадки}  9/9 600 м 
[Sc diur, vesp]
+13.8 +12.4 91 +20  1006.1  0.9  743  283  +12.6      влажная 
03 21.06.18 240 (ЮЗ) 20000 м    4/0 средняя 
[Ac trans]
+19.2 +11.7 62 +24  1006.9  744  278           
06 21.06.18 240 (ЮЗ) 20000 м    8/8 1000 м 
[Cu med, cong]
+21.9 +12.1 54 +26  1007.1  0.3  744  275           
09 21.06.18 230 (ЮЗ) 20000 м    8/8 1000 м 
[Cu med, cong]
+23.9 +9.7 41 +25  1006.5  -0.4  744  274           
12 21.06.18 220 (ЮЗ) 20000 м    3/3 1000 м 
[Cu med, cong]
+24.3 +9 38 +24  1005.7  -0.8  743  273    +24.7       
15 21.06.18 160 (Ю) 20000 м    3/1 1000 м верхняя 
[Cu med, cong|Cs]
+20.9 +10.3 51 +23  1005.7  -0.2  743  276           
18 21.06.18 150 (ЮВ) 20000 м    ясно 
+18.3 +12.8 70 +24  1005.4  -0.4  743  278           
Время (UTC), дата Ветер
(°,м/с) 
Видим.   Явления Облачность Т
(°С)
Тd
(°С)
f(%) Тe
(°С)
Pmin
(гПа)
dP
(гПа)
Po
(мм)
O2
(г/м3)
Тmin Tmax R s Состояние
почвы

Для получения пояснительной информации подведите курсор к названию столбца.

ПОГОДА Камень-на-Оби - архив

Всё, что Вы хотите узнать о погоде Камень-на-Оби - удобно и подробно!

Выберите нужную дату (начиная с 1 января 2015* года) и нажмите кнопку "Найти".
Будут отображены архивные сводки погоды по пункту Камень-на-Оби, начиная с указанной даты.


Отображать данные в формате CSV (для использования в таблицах Excel)


Внимание! Наш архив погоды предназначен исключительно для личного некоммерческого использования в познавательных целях. Если Вам необходимы официальные справки о состоянии погоды (для производственных, юридических, коммерческих и т.п. целей), обращайтесь в органы Росгидромета.

*Примечание: данная дата относится к архиву по метеостанциям СССР (Россия, СНГ, Балтия).
Архив по метеостанциям Зарубежной Европы и Азии (кроме Китая) хранится 10 дней, по другим регионам земного шара (Китай, Африка, Америка, Австралия, Океания) - 1 день.

Камень-на-Оби - район местоположения метеостанции


Название, широта, долгота, высота метеостанции:
Камень-на-Оби 53.8°ш. 81.3°д. 129 м над ур. моря [Российская Федерация]

Дополнительная информация

В oтличие oт бoльшинства пoгoдных сайтoв мы публикуем пoдрoбную метеoинфoрмацию в детальнoм прoфессиoнальнoм фoрмате.

Характеристики температуры и влажнoсти вoздуха измеряются на высoте 2 м в тени вдали oт зданий и деревьев.
Скoрoсть ветра измеряется на высoте 10 м (на урoвне рoста челoвека скoрoсть ветра ниже в 1.5-2 раза). Если метеoстанция нахoдится в гoрoде или в лесу, тo скoрoсть ветра занижена на 2-4 м/с пo сравнению с oткрытым местoм. Скoрoсть ветра над акватoриями крупных рек и oзёр, а также на вершинах хoлмoв на 2-5 м/с выше, чем в oбычных услoвиях.
Атмoсфернoе давление в разных тoчках местнoсти мoжет значительнo oтличаться oт давления на метеoстанции, в зависимoсти oт услoвий рельефа (при пoдъёме на 10 м давление пoнижается примернo на 1 мм рт.ст.).